Find the Weather for any City, State  
or Zipcode, or Country:

West Linn, OR 97068 Weather
Local Radar
Local Radar  
Graphs, Details
Graphs and Gauges
Detailed Weather
Detailed Reports
Maps
Temperature
Heat Index
Windchill
Humidity
Radar
Dew Point
Wind
Visibility
Visible Satellite
Satellite
Fronts
Snow Depth
Jet Stream
Flight Rules
Forecast Maps
Temperature Forecast
Maximum Temperature Forecast
Minimum Temperature Forecast
Dewpoint Forecast
Prevalent Weather
12Hr Probability of Precip.
Sky Cover
Health Maps
UV Forecast
Air Quality
Peak Air Quality Index
Weather Station
Oregon Scientific WMR-968
Current Conditions [Select Refresh to Update]
Updated: 1:45pm on 10/25/14
(location)
Currently:
60.4°
Clear
Overcast
High: 60.4° 
(1:38pm) 
Low: 49.6° 
(7:45am)
Wind: 9 mph from the SSE
Gust: 12 mph
Today's High Wind: 27 mph (11:26am)
Humidity: 73%
Pressure: 0.00 in  (Steady) 
Pressure Rate: 0.000 in/hr
Dew Point: 51.8°
Wind Chill: 59.3°
Heat Index (feels like): 63.8°
Comfort Level: Cool
Temperature Rate:  1.28°/hr
 
5 Day Forecast
 
Sat Sun Mon Tue Wed
Clear Clear Clear Clear Clear
Chance T-storms Rain Mostly Cloudy Chance Rain Mostly Cloudy
65° 55° 59° 59° 64°
46° 45° 48° 50° 48°
Records and Normals
 
Temperature Forecast Normal Record
High 65°
(0)
Low 46°
(0)
 
Weather Advisories
Warning Date: 12:25 PM PDT on October 25, 2014
Warning Description: High Wind Warning
Full Advisory Text...
Weather Map
Almanac
 
Sunrise:  
7:42am
Moonrise: 
9:28am
Moon Phase:
1%
Sunset: 
6:10pm
Moonset:  
7:31pm
 Star Chart...
Rainfall Totals
Hourly Rain 0.00 in
Daily Rain: 0.04 in
Monthly Rain: 3.62 in
Yearly Rain: 39.76 in
Normal Rain, month to date: 0.00 in
Normal Rain, year to date: 0.00 in
Local Weather Exchange® Network
Station ID City 
(Click for Map Location)
Neighborhood 
(Click for History)
Last Update (Date & Time) Temperature
 (°)
Dew
Point (°)
Humidity 
(%)
Wind 
(mph)
from the Wind Gust 
(mph) 
Pressure (in) Hourly
Rain (in)
KORWESTL3 West Linn Sunburst II 10/25 13:44:04 60.4 52.0 73 12 SW 12 0.00 0.00
KORWESTL7 West Linn Hidden Springs 10/25 13:36:45 62.0 52.0 71 10 SW 21 29.36 0.01
KORWESTL11 West Linn Ridgebrook Park 10/25 13:39:32 60.2 53.0 76 9 ESE 30 29.39 0.01
KORWESTL13 West Linn Vineland 10/25 13:33:26 60.1 46.0 59 3 SSE 8 29.06 0.00
KORWESTL1 West Linn Beaver Nation on Skyline Ridge 10/25 13:44:57 63.9 53.0 69 0 North 0 29.39 0.00
MODT63 West Linn MesoWest Canemah (OR 99E MP 14) OR US ODOT 10/25 11:32:00 62.0 48.0 59 3 SE 20 0.00 0.00
MORCO3 West Linn HADS WILLAMETTE RIVER BELOW OREGON CI OR US USGS 10/25 12:15:00 64.0 49.0 59 6 SSE 14 29.35 0.00
KORLAKEO12 Lake Oswego Marylhurst University 10/25 13:44:47 64.2 54.0 70 3 SSE 15 29.10 0.00
KOROREGO29 Oregon City Canemah Way 10/25 13:42:06 62.7 52.0 67 9 SE 38 29.40 0.01
KORGLADS5 GLADSTONE GLADSTONE (USA) 10/25 13:44:58 65.2 52.0 63 11 ESE 12 29.11 0.02
KOROREGO14 Oregon City 221 Molalla Avenue 10/25 13:44:54 64.0 51.0 64 7 SSE 22 29.08 0.06
KORLAKEO17 Lake Oswego Palisades 10/25 13:40:49 61.9 54.0 74 0 North 0 29.42 0.00
KOROREGO10 Oregon City Tower Vista 10/25 13:36:16 57.4 50.0 77 4 SSE 6 29.41 0.00
KORGLADS6 Gladstone Gladstone - Gallweather.com 10/25 13:40:40 62.1 53.0 73 11 SSE 11 29.36 0.00
KORPORTL111 Portland Oakgrove PO 1E (Milwaukie) 10/25 13:37:20 63.6 54.0 70 20 SE 20 29.36 0.02
KORGLADS4 Gladstone Gladstone - Go Beavers! 10/25 13:44:30 63.3 53.0 68 9 West 13 29.92 0.02
KORLAKEO14 Lake Oswego Rivergrove 10/25 13:40:16 62.3 55.0 78 0 North 3 29.30 0.01
KORMILWA9 Milwaukie Milwaukie @ 205 Clackamas 10/25 13:40:19 64.6 35.0 33 8 South 17 29.10 0.00
KORCLACK8 Clackamas Watkins Park 10/25 13:45:00 64.8 49.0 57 8 SE 25 29.32 0.01
KORCLACK6 Clackamas CHPCS Falcons 10/25 13:30:12 64.0 53.0 67 2 SSW 0 29.32 0.00
KORLAKEO16 Lake Oswego Portland Near Road 10/25 13:41:09 64.6 0.0 59 10 North 0 --- 0.00
KORMILWA3 Milwaukie meso_neigh22 10/25 13:44:34 64.9 43.0 47 0 North 0 29.39 0.00
KORTUALA3 Tualatin Tualatin 10/25 13:34:11 61.3 51.0 69 1 SSE 7 29.43 0.00
KORMILWA5 Milwaukie meso_neigh24 10/25 13:44:56 64.1 53.0 68 7 SSW 21 29.34 0.00
KORMILWA6 Milwaukie Logus-Stanley 10/25 13:44:35 64.8 52.0 63 5 South 8 29.41 0.00
KORPORTL104 Portland West Portland Park 10/25 13:44:15 61.0 50.0 67 3 ENE 4 29.32 0.00
KOROREGO23 Oregon City Bradley Rd 10/25 13:40:21 63.3 50.0 63 1 WSW 15 29.39 0.00
KORCANBY8 Canby Quarter Moon Ranch Weather 10/25 13:44:34 65.0 54.0 68 8 South 13 0.00 0.03
KORPORTL227 Portland Ardenwald Station #1 10/25 13:44:05 64.4 53.0 67 2 South 18 29.37 0.00
KORPORTL172 Portland Portland Rowing Club 10/25 13:44:54 65.0 53.0 65 12 South 25 29.40 0.00
KORPORTL200 Portland South Burlingame 10/25 13:44:56 61.9 54.0 75 0 North 0 29.02 0.00
KORTUALA7 Tualatin Lake Forest 10/25 13:40:57 63.1 51.0 65 0 ESE 0 29.18 0.09
KORCANBY3 Canby West of Fair Grounds 10/25 13:45:02 64.2 51.0 62 2 South 11 29.42 0.01
KORWILSO8 Wilsonville Charbonneau Lakeside 10/25 13:44:52 66.0 53.0 63 14 SSE 26 28.90 0.00
KORWILSO7 Wilsonville The Village at Main Street 10/25 13:45:02 64.2 42.0 44 3 South 4 29.09 0.00
KORPORTL216 Portland Smith School 10/25 13:44:48 60.8 54.0 79 4 NNW 8 29.39 0.04
KORPORTL102 Portland Woodstock 10/25 13:38:19 63.9 53.0 68 5 SW 0 29.30 0.00
KUAO Aurora Official Station 10/25 12:53:00 63.0 50.0 63 15 South --- 29.40 ---
KPDX Portland Official Station 10/25 12:53:00 59.0 52.0 78 17 ESE --- 29.40 ---
KVUO Vancouver Official Station 10/25 12:53:00 60.0 51.0 72 10 SE --- 29.39 ---
Full Advisory Text
Warning Description: High Wind Warning

Warning Date: 12:25 PM PDT on October 25, 2014

WarningSum:...High Wind Warning Remains In Effect Until 7 Pm Pdt This
Evening For The Willamette Valley...

Warning Message:A High Wind Warning remains in effect until 7 PM PDT this
evening.
* Winds: south winds of 10 to 20 mph will increase abruptly this
  afternoon into the 25 to 35 mph range with widespread gusts to
  50 mph. Gusts to 60 mph will be possible.
* Timing: strongest winds now through 5 PM. 
* Locations include: Hillsboro...Portland...Oregon City... 
  Gresham...Troutdale...Salem...McMinnville...Eugene... 
  Corvallis...Albany...Vancouver...Battle Ground...Camas...and 
  Washougal.
* Impacts: power outages and areas containing significant tree
  damage are possible. 
* As of noon: isolated reports of tree limbs coming down and power
  outages are surfacing from Eugene...Beaverton...and Creswell. So
  far the strongest wind gusts measured at weather stations have
  been between 40 and 45 mph near Corvallis and Aurora.
Precautionary/preparedness actions...
A High Wind Warning means a hazardous high wind event is expected
or occurring. Sustained wind speeds of at least 40 mph or gusts
of 58 mph or more can lead to property damage.
        

© Ambient Weather and Weather Underground
 Never base important decisions on this or any weather information obtained from the Internet
Updated Automatically by Ambient Weather's Virtual Weather Station  V13.01